Regional Weather Roundup
Issued by NWS Spokane, WA

Home | Current Version | Previous Version | Text Only | Print | Product List | Glossary On
Versions: 1 2 3 4 5 6 7 8 9 10 11 12 13 14 15 16 17 18 19 20 21 22 23 24 25 26 27 28 29 30 31 32 33 34 35 36 37 38 39 40 41 42 43 44 45 46 47 48 49 50
000
NZUS01 KOTX 200757
RWROTX

Eastern Washington/Northern Idaho Roundup
National Weather Service, Spokane WA
100 AM PDT WED SEP 20 2017

Note: "fair" indicated few or no clouds below 12,000 feet with no
significant weather and/or obstructions to visibility.

...Northeast Washington and Northern Idaho Panhandle...

CITY           SKY/WX    TMP DP  RH WIND       PRES   REMARKS
Spokane Intl   MOCLDY    44  41  89 S13G21    29.66F
Spokane Downto MOCLDY    46  43  89 CALM      29.68F
Deer Park      MOCLDY    38  37  97 NE3       29.67S

...Southeast Washington and southern Idaho Panhandle...

CITY           SKY/WX    TMP DP  RH WIND       PRES   REMARKS
Walla Walla    RAIN      51  46  83 S9        29.75S
Pullman/Moscow MOCLDY    47  38  71 SW8       29.72F
Lowell           N/A     47  44  90 CALM      29.79F

...Columbia Basin...

CITY           SKY/WX    TMP DP  RH WIND       PRES   REMARKS
Ephrata        MOCLDY    45  33  63 S7        29.64F
Moses Lake     MOCLDY    50  38  63 SW12      29.66F
Pasco          CLOUDY    55  43  63 SW12      29.71F
Hermiston      LGT RAIN  50  49  96 SW8       29.74F
Pendleton      LGT RAIN  48  44  86 W8        29.74F

...East Slopes Cascades...

CITY           SKY/WX    TMP DP  RH WIND       PRES   REMARKS
The Dalles     LGT RAIN  51  48  89 SE5       29.72F
Yakima         PTCLDY    46  38  73 CALM      29.69F
Ellensburg     PTCLDY    45  38  76 N9        29.68F
Omak           CLOUDY    43  39  86 N7        29.64F

...Southern British Columbia...

CITY           SKY/WX    TMP DP  RH WIND       PRES   REMARKS

...Western Montana...

CITY           SKY/WX    TMP DP  RH WIND       PRES   REMARKS
Missoula       CLOUDY    40  37  89 NW5       29.75F

...Neighboring Cities...

CITY           SKY/WX    TMP DP  RH WIND       PRES   REMARKS
Seattle        MOCLDY    52  46  80 E6        29.69F
Portland       RAIN      54  53  97 SE10      29.69F FOG
Boise          CLOUDY    50  40  68 SE10      29.84F
Great Falls    CLOUDY    44  29  55 SW21      29.61F



USA.gov is the U.S. government's official web portal to all federal, state and local government web resources and services.